User: anonymous   Login
Location: Godiavel Galaoual
(15.2485°N, 12.6604°W)
Time: 11:01:55
(UTC+00:00)
Language:

Cosmos 2242 Rocket - Orbit

View from above orbital plane
View from above orbital plane
View from above satellite
View from above satellite

Ground track
Ground track

The orbit data is extracted from the following two-line orbital elements,

1 22627U 93024B   21335.09510558  .00000090  00000-0  90916-5 0  9993
2 22627  82.5239  28.2719 0024640  50.3312 310.0068 14.78235713542627
Epoch (UTC): 01 December 2021 02:16:57
Eccentricity: 0.0024640
inclination: 82.5239°
perigee height: 617 km
apogee height: 652 km
right ascension of ascending node: 28.2719°
argument of perigee: 50.3312°
revolutions per day: 14.78235713
mean anomaly at epoch: 310.0068°
orbit number at epoch: 54262

The dashed part of the orbit path shows where the satellite is in the earth's shadow,  

DLR